User: anonymous   Login
Location: Unspecified
(0.0000°N, 0.0000°E)
Time: 18:50:15
(UTC+00:00)
Language:

N. Korean satellite - Orbit

View from above orbital plane
View from above orbital plane
View from above satellite
View from above satellite

Ground track
Ground track

The orbit data is extracted from the following two-line orbital elements,

1 39026U 12072A   18351.17984965  .00001460  00000-0  56112-4 0  9999
2 39026  97.2097 355.3713 0039676  35.5846 324.8027 15.27290938333589
Epoch (UTC): 17 December 2018 04:18:59
Eccentricity: 0.0039676
inclination: 97.2097°
perigee height: 456 km
apogee height: 511 km
right ascension of ascending node: 355.3713°
argument of perigee: 35.5846°
revolutions per day: 15.27290938
mean anomaly at epoch: 324.8027°
orbit number at epoch: 33358

The dashed part of the orbit path shows where the satellite is in the earth's shadow,  

DLR